Regional Weather Roundup
Issued by NWS Sioux Falls, SD

Home | Current Version | Previous Version | Text Only | Print | Product List | Glossary Off
Versions: 1 2 3 4 5 6 7 8 9 10 11 12 13 14 15 16 17 18 19 20 21 22 23 24 25 26 27 28 29 30 31 32 33 34 35 36 37 38 39 40 41 42 43 44 45 46 47 48 49 50

516
ASUS43 KFSD 232302
RWRFSD

WEATHER ROUNDUP FOR SE SOUTH DAKOTA/SW MINNESOTA/NW IOWA
NATIONAL WEATHER SERVICE SIOUX FALLS SD
500 PM CST THU NOV 23 2017

NOTE: "FAIR" INDICATES FEW OR NO CLOUDS BELOW 12,000 FEET WITH NO
SIGNIFICANT WEATHER AND OR OBSTRUCTIONS TO VISIBILITY.


SDZ038>040-050-052>070-240000-
SOUTHEAST SOUTH DAKOTA

CITY           SKY/WX    TMP DP  RH WIND       PRES   REMARKS
BROOKINGS      PTCLDY    51  37  58 S9        29.72F
CHAMBERLAIN    CLOUDY    62  44  51 SW3       29.71F
HURON          CLOUDY    54  40  59 S5        29.69F
MADISON        FAIR      50  37  62 S10       29.74F
MITCHELL       CLOUDY    60  42  51 S8        29.71F
SIOUX FALLS    CLOUDY    53  39  59 S5        29.75F
WINNER         FAIR      67  41  38 S8        29.74F
YANKTON        PTCLDY    64  43  46 S5        29.76F HAZE
$$

MNZ071-072-080-081-089-090-097-098-240000-
SOUTHWEST MINNESOTA

CITY           SKY/WX    TMP DP  RH WIND       PRES   REMARKS
FAIRMONT       CLOUDY    43  30  60 S12       29.80F
JACKSON        CLOUDY    46  32  57 CALM      29.78F
MARSHALL       CLOUDY    53  35  50 SW8       29.73S
MONTEVIDEO     CLEAR     48  34  57 S7        29.70F
PIPESTONE      CLOUDY    46  34  61 SW7       29.75F
REDWOOD FALLS  CLEAR     45  29  53 S10       29.73F
WINDOM         CLOUDY    50  30  46 S8        29.76F
WORTHINGTON    CLOUDY    50  34  54 SW14      29.77F
$$

IAZ001>003-012>014-020>022-031-032-NEZ013-014-SDZ071-240000-
NORTHWEST IOWA

CITY           SKY/WX    TMP DP  RH WIND       PRES   REMARKS
CHEROKEE       CLOUDY    51  34  51 S7        29.81F
DENISON        CLEAR     54  36  50 S7        29.85F
ESTHERVILLE    CLEAR     41  30  65 S10       29.79F
LE MARS        CLEAR     54  37  54 S12       29.79F
ORANGE CITY    CLOUDY    52  37  58 S6        29.80S
SHELDON        CLOUDY    52  34  50 S9        29.77F
SIOUX CITY     CLOUDY    57  38  48 SE8       29.80F
SPENCER        CLOUDY    47  31  53 S8        29.80F
STORM LAKE     CLOUDY    52  34  50 S12       29.81F
$$

ABBREVIATIONS USED IN REMARKS
   TC - TEMPERATURE IN CELSIUS
  WCI - WIND CHILL INDEX
   HX - HEAT INDEX
  VSB - VISIBILITY





USA.gov is the U.S. government's official web portal to all federal, state and local government web resources and services.